| time (UTC) | temp F | wind direction | speed MPH | gust MPH | rain 1hr in | rain 24hr in | rain mn in | humidity % | barometer mb |
| 20260510234304 | 60 | 215 | 0.0 | 1.0 | 0.00 | 0.05 | 0.05 | 29 | 1009.4 |
| 20260510233305 | 60 | 247 | 0.0 | 3.0 | 0.00 | 0.05 | 0.05 | 30 | 1008.7 |
| 20260510232805 | 60 | 245 | 0.0 | 0.0 | 0.00 | 0.05 | 0.05 | 36 | 1008.7 |
| 20260510232306 | 60 | 245 | 0.0 | 1.0 | 0.00 | 0.05 | 0.05 | 35 | 1008.7 |
| 20260510231805 | 61 | 75 | 0.0 | 3.0 | 0.00 | 0.05 | 0.05 | 35 | 1008.7 |
| 20260510224804 | 62 | 247 | 0.0 | 3.0 | 0.00 | 0.05 | 0.05 | 31 | 1008.3 |
| 20260510224305 | 62 | 251 | 0.0 | 0.0 | 0.00 | 0.05 | 0.05 | 38 | 1008.3 |
| 20260510223804 | 62 | 251 | 0.0 | 1.0 | 0.00 | 0.05 | 0.05 | 40 | 1008.3 |
| 20260510223304 | 63 | 253 | 0.0 | 0.0 | 0.00 | 0.05 | 0.05 | 36 | 1008.3 |
| 20260510222306 | 64 | 252 | 0.0 | 0.0 | 0.00 | 0.05 | 0.05 | 32 | 1007.6 |
| 20260510221805 | 64 | 256 | 0.0 | 5.0 | 0.00 | 0.05 | 0.05 | 32 | 1007.6 |
| 20260510221304 | 64 | 194 | 1.0 | 6.0 | 0.00 | 0.05 | 0.05 | 32 | 1007.6 |
| 20260510215306 | 64 | 209 | 1.0 | 3.0 | 0.00 | 0.05 | 0.05 | 42 | 1007.6 |
| 20260510214804 | 64 | 256 | 0.0 | 1.0 | 0.00 | 0.05 | 0.05 | 44 | 1007.6 |
| 20260510213804 | 64 | 37 | 0.0 | 2.0 | 0.00 | 0.05 | 0.05 | 40 | 1007.6 |
| 20260510213304 | 65 | 174 | 0.0 | 3.0 | 0.00 | 0.05 | 0.05 | 38 | 1007.6 |
| 20260510212804 | 64 | 207 | 0.0 | 0.0 | 0.00 | 0.05 | 0.05 | 39 | 1007.6 |
| 20260510212306 | 64 | 194 | 0.0 | 2.0 | 0.00 | 0.05 | 0.05 | 47 | 1007.6 |
| 20260510205804 | 66 | 122 | 0.0 | 2.0 | 0.00 | 0.05 | 0.05 | 41 | 1007.3 |
| 20260510204305 | 66 | 220 | 0.0 | 6.0 | 0.00 | 0.06 | 0.05 | 41 | 1007.3 |
| 20260510203804 | 66 | 75 | 0.0 | 0.0 | 0.00 | 0.06 | 0.05 | 42 | 1007.3 |
| 20260510202804 | 66 | 31 | 1.0 | 3.0 | 0.00 | 0.06 | 0.05 | 42 | 1007.3 |
| 20260510202306 | 65 | 188 | 1.0 | 9.0 | 0.00 | 0.06 | 0.05 | 42 | 1007.3 |
| 20260510200804 | 65 | 130 | 1.0 | 9.0 | 0.00 | 0.07 | 0.05 | 44 | 1007.8 |
| 20260510200304 | 65 | 210 | 1.0 | 10.0 | 0.00 | 0.08 | 0.05 | 44 | 1007.8 |
| 20260510195804 | 65 | 106 | 0.0 | 3.0 | 0.00 | 0.08 | 0.05 | 46 | 1007.8 |
| 20260510195306 | 65 | 222 | 2.0 | 3.0 | 0.00 | 0.09 | 0.05 | 45 | 1007.8 |
| 20260510194805 | 65 | 344 | 2.0 | 7.0 | 0.00 | 0.09 | 0.05 | 46 | 1007.8 |
| 20260510194305 | 66 | 108 | 0.0 | 3.0 | 0.00 | 0.10 | 0.05 | 47 | 1007.8 |
| 20260510190804 | 65 | 131 | 2.0 | 9.0 | 0.00 | 0.13 | 0.05 | 49 | 1007.8 |
| 20260510185306 | 65 | 288 | 0.0 | 1.0 | 0.00 | 0.14 | 0.05 | 52 | 1007.8 |
| 20260510183805 | 60 | 165 | 0.0 | 1.0 | 0.00 | 0.15 | 0.05 | 69 | 1007.9 |
| 20260510181804 | 60 | 194 | 0.0 | 1.0 | 0.00 | 0.17 | 0.05 | 76 | 1007.9 |
| 20260510181304 | 60 | 194 | 0.0 | 0.0 | 0.00 | 0.18 | 0.05 | 75 | 1007.9 |
| 20260510180804 | 60 | 194 | 0.0 | 0.0 | 0.00 | 0.18 | 0.05 | 74 | 1007.9 |
| 20260510180304 | 60 | 194 | 0.0 | 0.0 | 0.01 | 0.19 | 0.05 | 74 | 1007.9 |
| 20260510175804 | 60 | 194 | 0.0 | 0.0 | 0.04 | 0.19 | 0.05 | 74 | 1007.9 |
| 20260510174804 | 60 | 194 | 0.0 | 0.0 | 0.05 | 0.20 | 0.05 | 76 | 1008.0 |
| 20260510173804 | 59 | 194 | 0.0 | 0.0 | 0.05 | 0.22 | 0.05 | 76 | 1008.0 |
| 20260510173304 | 60 | 194 | 0.0 | 0.0 | 0.05 | 0.22 | 0.05 | 77 | 1008.0 |
| 20260510172804 | 59 | 194 | 0.0 | 0.0 | 0.05 | 0.22 | 0.05 | 76 | 1008.0 |
| 20260510171804 | 59 | 194 | 0.0 | 0.0 | 0.05 | 0.23 | 0.05 | 77 | 1008.0 |
| 20260510170305 | 60 | 194 | 0.0 | 1.0 | 0.04 | 0.24 | 0.04 | 68 | 1008.0 |
| 20260510163804 | 61 | 196 | 0.0 | 0.0 | 0.00 | 0.22 | 0.00 | 60 | 1007.9 |
| 20260510163305 | 61 | 167 | 0.0 | 0.0 | 0.00 | 0.23 | 0.00 | 63 | 1007.9 |
| 20260510162804 | 61 | 167 | 0.0 | 0.0 | 0.00 | 0.23 | 0.00 | 65 | 1007.9 |
| 20260510161804 | 61 | 167 | 0.0 | 0.0 | 0.00 | 0.24 | 0.00 | 62 | 1007.9 |
| 20260510161305 | 61 | 167 | 0.0 | 0.0 | 0.00 | 0.25 | 0.00 | 62 | 1007.9 |
| 20260510155306 | 61 | 241 | 0.0 | 2.0 | 0.00 | 0.27 | 0.00 | 60 | 1007.9 |
| 20260510154804 | 61 | 208 | 1.0 | 6.0 | 0.00 | 0.28 | 0.00 | 61 | 1007.9 |
| 20260510153804 | 60 | 178 | 1.0 | 5.0 | 0.00 | 0.30 | 0.00 | 62 | 1007.8 |
| 20260510153304 | 60 | 144 | 0.0 | 0.0 | 0.00 | 0.30 | 0.00 | 63 | 1007.8 |
| 20260510151304 | 60 | 86 | 0.0 | 0.0 | 0.00 | 0.31 | 0.00 | 64 | 1007.8 |
| 20260510150804 | 59 | 65 | 1.0 | 5.0 | 0.00 | 0.32 | 0.00 | 65 | 1007.8 |
| 20260510150304 | 58 | 221 | 0.0 | 1.0 | 0.00 | 0.32 | 0.00 | 64 | 1007.8 |
| 20260510145804 | 58 | 221 | 0.0 | 0.0 | 0.00 | 0.32 | 0.00 | 65 | 1007.8 |
| 20260510145306 | 58 | 222 | 0.0 | 0.0 | 0.00 | 0.32 | 0.00 | 65 | 1007.8 |
| 20260510144304 | 58 | 250 | 0.0 | 2.0 | 0.00 | 0.33 | 0.00 | 65 | 1007.8 |
| 20260510141804 | 56 | 175 | 0.0 | 1.0 | 0.00 | 0.33 | 0.00 | 69 | 1007.8 |
| 20260510141305 | 57 | 175 | 0.0 | 0.0 | 0.00 | 0.33 | 0.00 | 69 | 1007.8 |
| 20260510140304 | 57 | 164 | 0.0 | 0.0 | 0.00 | 0.33 | 0.00 | 70 | 1007.9 |
| 20260510134804 | 55 | 165 | 0.0 | 0.0 | 0.00 | 0.33 | 0.00 | 73 | 1007.9 |
| 20260510133804 | 55 | 165 | 0.0 | 0.0 | 0.00 | 0.33 | 0.00 | 75 | 1008.0 |
| 20260510133304 | 55 | 165 | 0.0 | 1.0 | 0.00 | 0.33 | 0.00 | 74 | 1008.0 |
| 20260510132804 | 55 | 165 | 0.0 | 1.0 | 0.00 | 0.33 | 0.00 | 74 | 1007.9 |
| 20260510132306 | 55 | 143 | 0.0 | 3.0 | 0.00 | 0.33 | 0.00 | 75 | 1007.9 |
| 20260510124805 | 53 | 242 | 0.0 | 0.0 | 0.00 | 0.33 | 0.00 | 81 | 1007.9 |
| 20260510124305 | 53 | 217 | 0.0 | 2.0 | 0.00 | 0.33 | 0.00 | 81 | 1007.9 |
| 20260510123804 | 53 | 217 | 0.0 | 0.0 | 0.00 | 0.33 | 0.00 | 82 | 1007.9 |
| 20260510123304 | 53 | 230 | 0.0 | 0.0 | 0.00 | 0.33 | 0.00 | 83 | 1007.9 |
| 20260510121804 | 52 | 272 | 0.0 | 0.0 | 0.00 | 0.33 | 0.00 | 84 | 1007.9 |
| 20260510115306 | 51 | 199 | 0.0 | 0.0 | 0.00 | 0.33 | 0.00 | 85 | 1007.8 |
| 20260510112805 | 51 | 199 | 0.0 | 1.0 | 0.00 | 0.33 | 0.00 | 87 | 1007.8 |
| 20260510112306 | 51 | 199 | 0.0 | 0.0 | 0.00 | 0.33 | 0.00 | 87 | 1007.8 |
| 20260510110804 | 50 | 199 | 0.0 | 2.0 | 0.00 | 0.33 | 0.00 | 88 | 1007.5 |
| 20260510105804 | 49 | 133 | 0.0 | 1.0 | 0.00 | 0.33 | 0.00 | 87 | 1007.0 |
| 20260510104305 | 49 | 133 | 0.0 | 0.0 | 0.00 | 0.33 | 0.00 | 87 | 1007.0 |
| 20260510102804 | 48 | 133 | 0.0 | 0.0 | 0.00 | 0.33 | 0.00 | 86 | 1006.8 |
| 20260510101305 | 48 | 133 | 0.0 | 0.0 | 0.00 | 0.33 | 0.00 | 86 | 1005.9 |
| 20260510100804 | 48 | 133 | 0.0 | 0.0 | 0.00 | 0.33 | 0.00 | 86 | 1005.9 |
| 20260510100305 | 48 | 133 | 0.0 | 0.0 | 0.00 | 0.33 | 0.00 | 86 | 1005.9 |
| 20260510095804 | 48 | 133 | 0.0 | 0.0 | 0.00 | 0.33 | 0.00 | 86 | 1005.9 |
| 20260510095306 | 48 | 133 | 0.0 | 0.0 | 0.00 | 0.33 | 0.00 | 86 | 1005.9 |
| 20260510094304 | 48 | 133 | 0.0 | 0.0 | 0.00 | 0.33 | 0.00 | 86 | 1005.9 |
| 20260510093804 | 48 | 133 | 0.0 | 0.0 | 0.00 | 0.33 | 0.00 | 86 | 1005.9 |
| 20260510092805 | 48 | 133 | 0.0 | 0.0 | 0.00 | 0.33 | 0.00 | 85 | 1005.9 |
| 20260510090304 | 48 | 133 | 0.0 | 0.0 | 0.00 | 0.33 | 0.00 | 85 | 1006.3 |
| 20260510083304 | 48 | 133 | 0.0 | 0.0 | 0.00 | 0.33 | 0.00 | 85 | 1006.3 |
| 20260510082805 | 48 | 133 | 0.0 | 0.0 | 0.00 | 0.33 | 0.00 | 85 | 1006.3 |
| 20260510081804 | 48 | 133 | 0.0 | 0.0 | 0.00 | 0.33 | 0.00 | 85 | 1006.3 |
| 20260510081305 | 48 | 133 | 0.0 | 0.0 | 0.00 | 0.33 | 0.00 | 85 | 1006.3 |
| 20260510080304 | 47 | 133 | 0.0 | 0.0 | 0.00 | 0.33 | 0.00 | 85 | 1006.3 |
| 20260510075306 | 47 | 133 | 0.0 | 0.0 | 0.00 | 0.33 | 0.00 | 85 | 1006.3 |
| 20260510074305 | 47 | 133 | 0.0 | 0.0 | 0.00 | 0.33 | 0.00 | 85 | 1006.3 |
| 20260510072306 | 47 | 133 | 0.0 | 0.0 | 0.00 | 0.33 | 0.00 | 85 | 1006.3 |
| 20260510071304 | 48 | 133 | 0.0 | 2.0 | 0.00 | 0.33 | 0.00 | 85 | 1006.3 |
| 20260510070804 | 48 | 133 | 1.0 | 3.0 | 0.00 | 0.33 | 0.00 | 85 | 1006.3 |
| 20260510070305 | 48 | 133 | 0.0 | 0.0 | 0.00 | 0.33 | 0.00 | 85 | 1006.3 |
| 20260510064804 | 48 | 133 | 0.0 | 0.0 | 0.00 | 0.33 | 0.00 | 84 | 1006.7 |
| 20260510063805 | 48 | 133 | 0.0 | 0.0 | 0.00 | 0.33 | 0.00 | 84 | 1006.8 |
| 20260510054304 | 47 | 133 | 0.0 | 0.0 | 0.00 | 0.33 | 0.00 | 83 | 1006.9 |
| 20260510053804 | 47 | 133 | 0.0 | 0.0 | 0.00 | 0.33 | 0.00 | 83 | 1006.9 |
| 20260510052804 | 47 | 133 | 0.0 | 0.0 | 0.00 | 0.33 | 0.00 | 83 | 1007.1 |
| 20260510051305 | 47 | 133 | 0.0 | 0.0 | 0.00 | 0.33 | 0.00 | 82 | 1007.1 |
| 20260510050804 | 47 | 133 | 0.0 | 0.0 | 0.00 | 0.33 | 0.00 | 82 | 1007.1 |
| 20260510044804 | 47 | 133 | 0.0 | 0.0 | 0.00 | 0.33 | 0.00 | 82 | 1007.1 |
| 20260510044305 | 47 | 133 | 0.0 | 0.0 | 0.00 | 0.33 | 0.00 | 81 | 1007.1 |
| 20260510042804 | 47 | 133 | 0.0 | 0.0 | 0.00 | 0.33 | 0.00 | 81 | 1007.1 |
| 20260510042306 | 47 | 133 | 0.0 | 3.0 | 0.00 | 0.33 | 0.00 | 81 | 1007.1 |
| 20260510041804 | 47 | 133 | 0.0 | 0.0 | 0.00 | 0.33 | 0.00 | 81 | 1007.1 |
| 20260510041304 | 48 | 133 | 0.0 | 0.0 | 0.00 | 0.33 | 0.00 | 81 | 1007.1 |
| 20260510040821 | 48 | 133 | 0.0 | 0.0 | 0.00 | 0.33 | 0.00 | 81 | 1007.1 |
| 20260510040305 | 48 | 133 | 0.0 | 0.0 | 0.00 | 0.33 | 0.00 | 80 | 1007.1 |
| 20260510035804 | 48 | 133 | 0.0 | 0.0 | 0.00 | 0.33 | 0.33 | 80 | 1007.1 |
| 20260510035306 | 48 | 133 | 0.0 | 0.0 | 0.00 | 0.33 | 0.33 | 80 | 1007.1 |
| 20260510034804 | 48 | 133 | 0.0 | 0.0 | 0.00 | 0.33 | 0.33 | 80 | 1007.1 |
| 20260510034305 | 47 | 133 | 0.0 | 0.0 | 0.00 | 0.33 | 0.33 | 80 | 1007.1 |
| 20260510033304 | 47 | 133 | 0.0 | 0.0 | 0.00 | 0.33 | 0.33 | 80 | 1007.1 |
| 20260510032805 | 47 | 133 | 0.0 | 0.0 | 0.00 | 0.33 | 0.33 | 80 | 1007.1 |
| 20260510032306 | 47 | 128 | 0.0 | 5.0 | 0.00 | 0.33 | 0.33 | 80 | 1007.2 |
| 20260510031804 | 47 | 128 | 0.0 | 2.0 | 0.00 | 0.33 | 0.33 | 79 | 1007.2 |
| 20260510031304 | 47 | 128 | 0.0 | 0.0 | 0.00 | 0.33 | 0.33 | 79 | 1007.2 |
| 20260510030305 | 47 | 157 | 0.0 | 0.0 | 0.00 | 0.33 | 0.33 | 79 | 1007.3 |
| 20260510024804 | 47 | 157 | 2.0 | 6.0 | 0.00 | 0.33 | 0.33 | 79 | 1007.3 |
| 20260510024304 | 47 | 155 | 3.0 | 5.0 | 0.00 | 0.33 | 0.33 | 80 | 1007.3 |
| 20260510023304 | 47 | 151 | 2.0 | 3.0 | 0.00 | 0.33 | 0.33 | 80 | 1007.4 |
| 20260510022804 | 47 | 152 | 0.0 | 2.0 | 0.00 | 0.33 | 0.33 | 80 | 1007.4 |
| 20260510021804 | 47 | 157 | 0.0 | 2.0 | 0.00 | 0.33 | 0.33 | 80 | 1007.5 |
| 20260510020804 | 47 | 152 | 0.0 | 0.0 | 0.00 | 0.33 | 0.33 | 80 | 1007.4 |
| 20260510020304 | 47 | 153 | 0.0 | 3.0 | 0.00 | 0.33 | 0.33 | 80 | 1007.4 |
| 20260510015306 | 47 | 119 | 0.0 | 0.0 | 0.00 | 0.33 | 0.33 | 80 | 1007.5 |
| 20260510014805 | 47 | 119 | 0.0 | 0.0 | 0.00 | 0.33 | 0.33 | 80 | 1007.5 |
| 20260510013804 | 47 | 118 | 0.0 | 6.0 | 0.00 | 0.33 | 0.33 | 80 | 1007.5 |
| 20260510012307 | 47 | 153 | 0.0 | 3.0 | 0.00 | 0.33 | 0.33 | 80 | 1007.5 |
| 20260510011306 | 47 | 150 | 0.0 | 0.0 | 0.00 | 0.33 | 0.33 | 80 | 1007.5 |
| 20260510010804 | 47 | 150 | 0.0 | 3.0 | 0.00 | 0.33 | 0.33 | 80 | 1007.5 |
| 20260510005804 | 47 | 148 | 0.0 | 0.0 | 0.00 | 0.33 | 0.33 | 80 | 1007.5 |
| 20260510005306 | 47 | 144 | 0.0 | 0.0 | 0.00 | 0.33 | 0.33 | 80 | 1007.5 |
| 20260510003304 | 47 | 144 | 0.0 | 0.0 | 0.00 | 0.33 | 0.33 | 80 | 1007.3 |
| 20260510002804 | 47 | 136 | 1.0 | 10.0 | 0.00 | 0.33 | 0.33 | 80 | 1007.3 |
| 20260510002306 | 47 | 163 | 0.0 | 0.0 | 0.00 | 0.33 | 0.33 | 80 | 1007.3 |
| 20260510001304 | 47 | 163 | 0.0 | 0.0 | 0.00 | 0.33 | 0.33 | 80 | 1006.9 |
| 20260510000804 | 47 | 163 | 1.0 | 3.0 | 0.00 | 0.33 | 0.33 | 81 | 1006.9 |
| 20260509235804 | 47 | 161 | 2.0 | 3.0 | 0.00 | 0.33 | 0.33 | 81 | 1006.9 |
| 20260509234805 | 47 | 161 | 0.0 | 3.0 | 0.00 | 0.33 | 0.33 | 81 | 1006.9 |